| time (UTC) | temp F | wind direction | speed MPH | gust MPH | rain 1hr in | rain 24hr in | rain mn in | humidity % | barometer mb |
| 20260503225114 | 60 | 277 | 4.0 | 8.0 | 0.00 | 0.02 | 0.00 | 66 | 1011.7 |
| 20260503224534 | 60 | 264 | 4.0 | 7.0 | 0.00 | 0.02 | 0.00 | 66 | 1014.1 |
| 20260503224042 | 60 | 274 | 4.0 | 7.0 | 0.00 | 0.02 | 0.00 | 66 | 1014.0 |
| 20260503223538 | 60 | 277 | 6.0 | 7.0 | 0.00 | 0.02 | 0.00 | 66 | 1014.1 |
| 20260503223028 | 60 | 283 | 6.0 | 7.0 | 0.00 | 0.02 | 0.00 | 66 | 1014.0 |
| 20260503222518 | 60 | 285 | 3.0 | 7.0 | 0.00 | 0.02 | 0.00 | 67 | 1014.1 |
| 20260503222026 | 60 | 281 | 5.0 | 7.0 | 0.00 | 0.02 | 0.00 | 67 | 1014.1 |
| 20260503221524 | 60 | 264 | 4.0 | 8.0 | 0.00 | 0.02 | 0.00 | 67 | 1014.1 |
| 20260503221041 | 60 | 285 | 5.0 | 10.0 | 0.00 | 0.02 | 0.00 | 67 | 1014.1 |
| 20260503220525 | 60 | 291 | 6.0 | 10.0 | 0.00 | 0.02 | 0.00 | 66 | 1014.1 |
| 20260503220055 | 61 | 269 | 3.0 | 7.0 | 0.00 | 0.02 | 0.02 | 66 | 1014.0 |
| 20260503215524 | 61 | 301 | 2.0 | 7.0 | 0.00 | 0.02 | 0.02 | 67 | 1014.0 |
| 20260503215018 | 61 | 285 | 3.0 | 8.0 | 0.00 | 0.02 | 0.02 | 67 | 1014.0 |
| 20260503214536 | 61 | 285 | 5.0 | 8.0 | 0.00 | 0.02 | 0.02 | 67 | 1014.1 |
| 20260503214032 | 61 | 280 | 5.0 | 8.0 | 0.00 | 0.02 | 0.02 | 67 | 1014.1 |
| 20260503213546 | 61 | 288 | 5.0 | 8.0 | 0.00 | 0.02 | 0.02 | 66 | 1014.0 |
| 20260503213031 | 61 | 290 | 5.0 | 7.0 | 0.00 | 0.02 | 0.02 | 66 | 1014.1 |
| 20260503212627 | 62 | 241 | 3.0 | 7.0 | 0.00 | 0.02 | 0.02 | 66 | 1011.5 |
| 20260503212043 | 62 | 281 | 2.0 | 7.0 | 0.00 | 0.02 | 0.02 | 66 | 1014.0 |
| 20260503211534 | 62 | 270 | 3.0 | 6.0 | 0.00 | 0.02 | 0.02 | 66 | 1013.8 |
| 20260503211017 | 62 | 277 | 3.0 | 6.0 | 0.00 | 0.02 | 0.02 | 65 | 1013.8 |
| 20260503210516 | 62 | 318 | 3.0 | 5.0 | 0.00 | 0.02 | 0.02 | 65 | 1013.7 |
| 20260503210047 | 62 | 269 | 2.0 | 6.0 | 0.00 | 0.02 | 0.02 | 65 | 1013.7 |
| 20260503205524 | 62 | 256 | 3.0 | 6.0 | 0.00 | 0.02 | 0.02 | 66 | 1013.7 |
| 20260503205109 | 62 | 319 | 3.0 | 6.0 | 0.00 | 0.02 | 0.02 | 65 | 1011.1 |
| 20260503204521 | 63 | 357 | 3.0 | 6.0 | 0.00 | 0.02 | 0.02 | 64 | 1013.5 |
| 20260503204021 | 63 | 302 | 2.0 | 6.0 | 0.00 | 0.02 | 0.02 | 65 | 1013.4 |
| 20260503203542 | 63 | 319 | 2.0 | 6.0 | 0.00 | 0.02 | 0.02 | 64 | 1013.3 |
| 20260503202528 | 63 | 317 | 2.0 | 6.0 | 0.00 | 0.02 | 0.02 | 64 | 1013.1 |
| 20260503202027 | 63 | 293 | 3.0 | 6.0 | 0.00 | 0.02 | 0.02 | 64 | 1013.1 |
| 20260503201534 | 63 | 269 | 3.0 | 8.0 | 0.00 | 0.02 | 0.02 | 64 | 1013.0 |
| 20260503201024 | 64 | 273 | 5.0 | 8.0 | 0.00 | 0.02 | 0.02 | 64 | 1012.9 |
| 20260503200527 | 64 | 294 | 3.0 | 4.0 | 0.00 | 0.02 | 0.02 | 63 | 1012.7 |
| 20260503200042 | 64 | 279 | 1.0 | 5.0 | 0.00 | 0.02 | 0.02 | 64 | 1012.6 |
| 20260503195531 | 64 | 256 | 4.0 | 6.0 | 0.00 | 0.02 | 0.02 | 63 | 1012.6 |
| 20260503195042 | 64 | 249 | 3.0 | 6.0 | 0.00 | 0.02 | 0.02 | 63 | 1012.6 |
| 20260503194541 | 64 | 250 | 3.0 | 4.0 | 0.00 | 0.02 | 0.02 | 63 | 1012.6 |
| 20260503194043 | 64 | 316 | 2.0 | 7.0 | 0.00 | 0.02 | 0.02 | 63 | 1012.4 |
| 20260503193525 | 65 | 280 | 2.0 | 7.0 | 0.00 | 0.02 | 0.02 | 62 | 1012.4 |
| 20260503193027 | 65 | 287 | 4.0 | 7.0 | 0.00 | 0.02 | 0.02 | 63 | 1012.4 |
| 20260503192533 | 65 | 278 | 2.0 | 6.0 | 0.00 | 0.02 | 0.02 | 63 | 1012.3 |
| 20260503192042 | 65 | 247 | 4.0 | 6.0 | 0.00 | 0.02 | 0.02 | 63 | 1012.4 |
| 20260503191517 | 65 | 248 | 2.0 | 8.0 | 0.00 | 0.02 | 0.02 | 63 | 1012.4 |
| 20260503191101 | 65 | 237 | 3.0 | 8.0 | 0.00 | 0.02 | 0.02 | 63 | 1012.3 |
| 20260503190044 | 65 | 252 | 3.0 | 8.0 | 0.00 | 0.02 | 0.02 | 62 | 1012.2 |
| 20260503185536 | 66 | 264 | 3.0 | 8.0 | 0.00 | 0.02 | 0.02 | 60 | 1012.2 |
| 20260503185023 | 66 | 286 | 4.0 | 8.0 | 0.00 | 0.02 | 0.02 | 58 | 1012.2 |
| 20260503184534 | 66 | 274 | 3.0 | 8.0 | 0.00 | 0.02 | 0.02 | 58 | 1012.0 |
| 20260503184023 | 66 | 269 | 7.0 | 9.0 | 0.00 | 0.02 | 0.02 | 58 | 1012.0 |
| 20260503183526 | 66 | 307 | 5.0 | 10.0 | 0.00 | 0.02 | 0.02 | 57 | 1012.0 |
| 20260503183048 | 66 | 277 | 6.0 | 10.0 | 0.00 | 0.02 | 0.02 | 57 | 1012.1 |
| 20260503182521 | 67 | 274 | 4.0 | 11.0 | 0.00 | 0.02 | 0.02 | 57 | 1012.0 |
| 20260503182020 | 67 | 288 | 5.0 | 9.0 | 0.00 | 0.02 | 0.02 | 57 | 1012.0 |
| 20260503181530 | 67 | 262 | 4.0 | 7.0 | 0.00 | 0.02 | 0.02 | 57 | 1012.0 |
| 20260503181017 | 67 | 287 | 4.0 | 9.0 | 0.00 | 0.02 | 0.02 | 56 | 1012.0 |
| 20260503180558 | 67 | 338 | 4.0 | 10.0 | 0.00 | 0.02 | 0.02 | 56 | 1011.9 |
| 20260503180104 | 67 | 286 | 5.0 | 10.0 | 0.00 | 0.02 | 0.02 | 55 | 1011.9 |
| 20260503175641 | 67 | 308 | 6.0 | 10.0 | 0.00 | 0.02 | 0.02 | 55 | 1009.5 |
| 20260503175121 | 67 | 256 | 6.0 | 10.0 | 0.00 | 0.02 | 0.02 | 55 | 1009.4 |
| 20260503174539 | 67 | 317 | 3.0 | 10.0 | 0.00 | 0.02 | 0.02 | 56 | 1011.9 |
| 20260503174039 | 67 | 301 | 8.0 | 10.0 | 0.00 | 0.02 | 0.02 | 55 | 1012.0 |
| 20260503173517 | 67 | 252 | 5.0 | 10.0 | 0.00 | 0.02 | 0.02 | 54 | 1012.0 |
| 20260503173032 | 68 | 266 | 6.0 | 12.0 | 0.00 | 0.02 | 0.02 | 53 | 1012.0 |
| 20260503172537 | 68 | 278 | 6.0 | 13.0 | 0.00 | 0.02 | 0.02 | 50 | 1011.8 |
| 20260503172120 | 68 | 233 | 9.0 | 13.0 | 0.00 | 0.02 | 0.02 | 49 | 1009.3 |
| 20260503171539 | 68 | 267 | 10.0 | 14.0 | 0.00 | 0.02 | 0.02 | 48 | 1011.8 |
| 20260503171031 | 68 | 259 | 8.0 | 14.0 | 0.00 | 0.02 | 0.02 | 50 | 1011.8 |
| 20260503170541 | 69 | 314 | 6.0 | 14.0 | 0.00 | 0.02 | 0.02 | 52 | 1011.8 |
| 20260503160104 | 69 | 322 | 11.0 | 16.0 | 0.00 | 0.02 | 0.02 | 51 | 1011.9 |
| 20260503150529 | 67 | 272 | 7.0 | 11.0 | 0.00 | 0.02 | 0.02 | 58 | 1012.3 |
| 20260503140140 | 69 | 233 | 7.0 | 17.0 | 0.00 | 0.02 | 0.02 | 54 | 1010.4 |
| 20260503131042 | 68 | 245 | 4.0 | 11.0 | 0.00 | 0.02 | 0.02 | 54 | 1013.2 |
| 20260503130541 | 67 | 277 | 6.0 | 11.0 | 0.00 | 0.02 | 0.02 | 55 | 1013.2 |
| 20260503130105 | 67 | 244 | 4.0 | 11.0 | 0.00 | 0.02 | 0.02 | 56 | 1013.3 |
| 20260503110517 | 66 | 249 | 12.0 | 17.0 | 0.00 | 0.02 | 0.02 | 59 | 1014.5 |
| 20260503081528 | 61 | 267 | 4.0 | 13.0 | 0.00 | 0.02 | 0.02 | 81 | 1014.9 |
| 20260503081026 | 60 | 268 | 9.0 | 11.0 | 0.00 | 0.02 | 0.02 | 81 | 1014.8 |
| 20260503080620 | 60 | 286 | 7.0 | 11.0 | 0.00 | 0.02 | 0.02 | 81 | 1012.3 |
| 20260503072531 | 60 | 273 | 4.0 | 9.0 | 0.00 | 0.02 | 0.02 | 85 | 1014.6 |
| 20260503072024 | 59 | 233 | 4.0 | 8.0 | 0.00 | 0.02 | 0.02 | 88 | 1014.6 |
| 20260503071535 | 59 | 263 | 5.0 | 8.0 | 0.00 | 0.02 | 0.02 | 88 | 1014.6 |
| 20260503071057 | 59 | 243 | 3.0 | 7.0 | 0.00 | 0.02 | 0.02 | 89 | 1014.6 |
| 20260503070625 | 58 | 252 | 4.0 | 7.0 | 0.00 | 0.02 | 0.02 | 89 | 1012.1 |
| 20260503054536 | 58 | 276 | 4.0 | 8.0 | 0.01 | 0.01 | 0.01 | 89 | 1014.3 |
| 20260503054030 | 58 | 270 | 4.0 | 8.0 | 0.01 | 0.01 | 0.01 | 88 | 1014.4 |
| 20260503053616 | 58 | 267 | 5.0 | 8.0 | 0.00 | 0.00 | 0.00 | 87 | 1011.9 |
| 20260503053033 | 58 | 234 | 2.0 | 6.0 | 0.00 | 0.00 | 0.00 | 86 | 1014.4 |
| 20260503052522 | 58 | 223 | 4.0 | 6.0 | 0.00 | 0.00 | 0.00 | 86 | 1014.3 |
| 20260503052031 | 58 | 229 | 3.0 | 6.0 | 0.00 | 0.00 | 0.00 | 85 | 1014.3 |
| 20260503051539 | 59 | 243 | 4.0 | 6.0 | 0.00 | 0.00 | 0.00 | 85 | 1014.3 |
| 20260503050527 | 59 | 248 | 4.0 | 8.0 | 0.00 | 0.00 | 0.00 | 85 | 1014.3 |
| 20260503050045 | 59 | 270 | 4.0 | 6.0 | 0.00 | 0.00 | 0.00 | 84 | 1014.3 |
| 20260503045538 | 59 | 278 | 3.0 | 6.0 | 0.00 | 0.00 | 0.00 | 84 | 1014.2 |
| 20260503045035 | 59 | 283 | 4.0 | 8.0 | 0.00 | 0.00 | 0.00 | 84 | 1014.1 |
| 20260503044517 | 59 | 293 | 4.0 | 8.0 | 0.00 | 0.00 | 0.00 | 84 | 1014.0 |
| 20260503044031 | 59 | 293 | 4.0 | 8.0 | 0.00 | 0.00 | 0.00 | 83 | 1014.0 |
| 20260503043528 | 59 | 273 | 3.0 | 6.0 | 0.00 | 0.00 | 0.00 | 83 | 1013.9 |
| 20260503043034 | 59 | 252 | 5.0 | 8.0 | 0.00 | 0.00 | 0.00 | 83 | 1014.0 |
| 20260503042517 | 59 | 260 | 4.0 | 9.0 | 0.00 | 0.00 | 0.00 | 82 | 1014.1 |
| 20260503042031 | 59 | 264 | 4.0 | 9.0 | 0.00 | 0.00 | 0.00 | 82 | 1014.1 |
| 20260503041625 | 59 | 258 | 3.0 | 8.0 | 0.00 | 0.00 | 0.00 | 81 | 1011.7 |
| 20260503041023 | 59 | 301 | 5.0 | 9.0 | 0.00 | 0.00 | 0.00 | 81 | 1014.2 |
| 20260503035602 | 59 | 280 | 4.0 | 9.0 | 0.00 | 0.00 | 0.00 | 79 | 1014.2 |
| 20260503035027 | 60 | 252 | 6.0 | 10.0 | 0.00 | 0.00 | 0.00 | 79 | 1014.4 |
| 20260503034523 | 60 | 273 | 6.0 | 10.0 | 0.00 | 0.00 | 0.00 | 78 | 1014.4 |
| 20260503034027 | 60 | 245 | 5.0 | 9.0 | 0.00 | 0.00 | 0.00 | 77 | 1014.4 |
| 20260503033545 | 60 | 264 | 6.0 | 8.0 | 0.00 | 0.00 | 0.00 | 77 | 1014.4 |
| 20260503033037 | 60 | 255 | 4.0 | 6.0 | 0.00 | 0.00 | 0.00 | 77 | 1014.4 |
| 20260503032542 | 60 | 269 | 4.0 | 8.0 | 0.00 | 0.00 | 0.00 | 76 | 1014.4 |
| 20260503032033 | 60 | 248 | 5.0 | 8.0 | 0.00 | 0.00 | 0.00 | 76 | 1014.4 |
| 20260503031535 | 60 | 253 | 3.0 | 6.0 | 0.00 | 0.00 | 0.00 | 76 | 1014.5 |
| 20260503031039 | 60 | 271 | 3.0 | 6.0 | 0.00 | 0.00 | 0.00 | 75 | 1014.5 |
| 20260503030526 | 60 | 264 | 3.0 | 4.0 | 0.00 | 0.00 | 0.00 | 75 | 1014.5 |
| 20260503030106 | 60 | 236 | 3.0 | 4.0 | 0.00 | 0.00 | 0.00 | 75 | 1014.4 |
| 20260503025029 | 60 | 264 | 3.0 | 5.0 | 0.00 | 0.00 | 0.00 | 75 | 1014.5 |
| 20260503024533 | 60 | 245 | 1.0 | 5.0 | 0.00 | 0.00 | 0.00 | 75 | 1014.5 |
| 20260503024047 | 60 | 214 | 1.0 | 5.0 | 0.00 | 0.00 | 0.00 | 75 | 1014.7 |
| 20260503023542 | 60 | 248 | 3.0 | 5.0 | 0.00 | 0.00 | 0.00 | 75 | 1014.7 |
| 20260503023038 | 60 | 250 | 4.0 | 5.0 | 0.00 | 0.00 | 0.00 | 75 | 1014.7 |
| 20260503022517 | 60 | 217 | 2.0 | 4.0 | 0.00 | 0.00 | 0.00 | 75 | 1014.7 |
| 20260503022017 | 60 | 245 | 2.0 | 4.0 | 0.00 | 0.00 | 0.00 | 75 | 1014.6 |
| 20260503021522 | 60 | 252 | 3.0 | 5.0 | 0.00 | 0.00 | 0.00 | 75 | 1014.7 |
| 20260503021034 | 60 | 248 | 3.0 | 5.0 | 0.00 | 0.00 | 0.00 | 75 | 1014.6 |
| 20260503020535 | 60 | 270 | 4.0 | 6.0 | 0.00 | 0.00 | 0.00 | 74 | 1014.6 |
| 20260503020049 | 60 | 256 | 4.0 | 7.0 | 0.00 | 0.00 | 0.00 | 74 | 1014.6 |
| 20260503015609 | 61 | 231 | 4.0 | 7.0 | 0.00 | 0.00 | 0.00 | 73 | 1012.1 |
| 20260503015031 | 61 | 226 | 0.0 | 5.0 | 0.00 | 0.00 | 0.00 | 72 | 1014.6 |
| 20260503014525 | 61 | 237 | 1.0 | 6.0 | 0.00 | 0.00 | 0.00 | 72 | 1014.6 |
| 20260503014029 | 61 | 249 | 4.0 | 6.0 | 0.00 | 0.00 | 0.00 | 72 | 1014.5 |
| 20260503013525 | 61 | 233 | 2.0 | 6.0 | 0.00 | 0.00 | 0.00 | 72 | 1014.6 |
| 20260503013024 | 61 | 214 | 2.0 | 5.0 | 0.00 | 0.00 | 0.00 | 71 | 1014.7 |
| 20260503012529 | 61 | 243 | 4.0 | 5.0 | 0.00 | 0.00 | 0.00 | 70 | 1014.7 |
| 20260503012019 | 61 | 215 | 2.0 | 5.0 | 0.00 | 0.00 | 0.00 | 71 | 1014.6 |
| 20260503011534 | 61 | 254 | 2.0 | 5.0 | 0.00 | 0.00 | 0.00 | 71 | 1014.7 |
| 20260503011053 | 61 | 214 | 2.0 | 3.0 | 0.00 | 0.00 | 0.00 | 72 | 1014.7 |
| 20260503010607 | 61 | 221 | 0.0 | 4.0 | 0.00 | 0.00 | 0.00 | 72 | 1012.3 |
| 20260503005526 | 61 | 241 | 2.0 | 3.0 | 0.00 | 0.00 | 0.00 | 73 | 1014.9 |
| 20260503005057 | 61 | 238 | 1.0 | 3.0 | 0.00 | 0.00 | 0.00 | 74 | 1015.0 |
| 20260503004539 | 61 | 229 | 0.0 | 3.0 | 0.00 | 0.00 | 0.00 | 75 | 1015.1 |
| 20260503004019 | 61 | 241 | 0.0 | 3.0 | 0.00 | 0.00 | 0.00 | 74 | 1015.2 |
| 20260503003516 | 61 | 223 | 2.0 | 4.0 | 0.00 | 0.00 | 0.00 | 75 | 1015.2 |
| 20260503003018 | 61 | 233 | 3.0 | 4.0 | 0.00 | 0.00 | 0.00 | 74 | 1015.3 |
| 20260503002536 | 61 | 218 | 0.0 | 3.0 | 0.00 | 0.00 | 0.00 | 75 | 1015.3 |
| 20260503002029 | 61 | 217 | 0.0 | 2.0 | 0.00 | 0.00 | 0.00 | 75 | 1015.4 |
| 20260503001532 | 61 | 244 | 1.0 | 3.0 | 0.00 | 0.00 | 0.00 | 75 | 1015.3 |
| 20260503001023 | 61 | 281 | 2.0 | 3.0 | 0.00 | 0.00 | 0.00 | 75 | 1015.4 |
| 20260503000530 | 61 | 264 | 0.0 | 0.0 | 0.00 | 0.00 | 0.00 | 76 | 1015.3 |
| 20260503000045 | 61 | 268 | 0.0 | 1.0 | 0.00 | 0.00 | 0.00 | 75 | 1015.3 |
| 20260502235517 | 62 | 284 | 0.0 | 2.0 | 0.00 | 0.00 | 0.00 | 76 | 1015.4 |
| 20260502235021 | 62 | 285 | 2.0 | 2.0 | 0.00 | 0.00 | 0.00 | 75 | 1015.4 |
| 20260502234527 | 61 | 287 | 0.0 | 1.0 | 0.00 | 0.00 | 0.00 | 76 | 1015.3 |
| 20260502234019 | 61 | 245 | 0.0 | 4.0 | 0.00 | 0.00 | 0.00 | 76 | 1015.5 |
| 20260502233549 | 61 | 240 | 3.0 | 4.0 | 0.00 | 0.00 | 0.00 | 76 | 1015.5 |
| 20260502233052 | 62 | 201 | 0.0 | 2.0 | 0.00 | 0.00 | 0.00 | 76 | 1015.4 |
| 20260502232024 | 62 | 228 | 2.0 | 3.0 | 0.00 | 0.00 | 0.00 | 76 | 1015.6 |
| 20260502231536 | 62 | 237 | 2.0 | 3.0 | 0.00 | 0.00 | 0.00 | 76 | 1015.5 |
| 20260502231026 | 62 | 281 | 2.0 | 3.0 | 0.00 | 0.00 | 0.00 | 76 | 1015.5 |
| 20260502230527 | 62 | 262 | 0.0 | 1.0 | 0.00 | 0.00 | 0.00 | 76 | 1015.5 |
| 20260502230041 | 62 | 239 | 0.0 | 1.0 | 0.00 | 0.00 | 0.00 | 77 | 1015.5 |
| 20260502225608 | 61 | 167 | 0.0 | 0.0 | 0.00 | 0.00 | 0.00 | 77 | 1013.1 |